Time,TemperatureF,DewpointF,PressureIn,WindDirection,WindDirectionDegrees,WindSpeedMPH,WindSpeedGustMPH,Humidity,HourlyPrecipIn,Conditions,Clouds,dailyrainin,SoftwareType,DateUTC
2013-07-09 00:01:00,78.3,70.9,29.82,NE,55,2.0,4.0,78,0.00,,,0.00,VWS V12.08,2013-07-09 05:01:00,
2013-07-09 00:06:00,78.1,70.7,29.82,ENE,76,5.0,7.0,78,0.00,,,0.00,VWS V12.08,2013-07-09 05:06:00,
2013-07-09 00:11:00,78.0,70.6,29.82,ENE,77,2.0,7.0,78,0.00,,,0.00,VWS V12.08,2013-07-09 05:11:00,
2013-07-09 00:16:00,77.9,70.5,29.83,NE,34,2.0,7.0,78,0.00,,,0.00,VWS V12.08,2013-07-09 05:16:00,
2013-07-09 00:21:00,77.6,70.6,29.83,NNE,31,3.0,7.0,79,0.00,,,0.00,VWS V12.08,2013-07-09 05:21:00,
2013-07-09 00:26:00,77.2,70.6,29.83,NE,34,3.0,7.0,80,0.00,,,0.00,VWS V12.08,2013-07-09 05:26:00,
2013-07-09 00:31:00,77.1,70.5,29.84,ENE,61,1.0,2.0,80,0.00,,,0.00,VWS V12.08,2013-07-09 05:31:00,
2013-07-09 00:36:00,77.1,70.1,29.84,NE,55,3.0,4.0,79,0.00,,,0.00,VWS V12.08,2013-07-09 05:36:00,
2013-07-09 00:41:00,77.1,70.1,29.84,NE,38,3.0,4.0,79,0.00,,,0.00,VWS V12.08,2013-07-09 05:41:00,
2013-07-09 00:46:00,77.1,70.1,29.84,East,81,2.0,4.0,79,0.00,,,0.00,VWS V12.08,2013-07-09 05:46:00,
2013-07-09 00:51:00,77.2,70.2,29.84,East,100,1.0,4.0,79,0.00,,,0.00,VWS V12.08,2013-07-09 05:51:00,
2013-07-09 00:56:00,77.3,70.3,29.84,East,97,3.0,4.0,79,0.00,,,0.00,VWS V12.08,2013-07-09 05:56:00,
2013-07-09 01:01:00,77.4,70.4,29.83,SE,126,3.0,4.0,79,0.00,,,0.00,VWS V12.08,2013-07-09 06:01:00,
2013-07-09 01:06:00,77.2,70.2,29.83,East,90,2.0,5.0,79,0.00,,,0.00,VWS V12.08,2013-07-09 06:06:00,
2013-07-09 01:11:00,77.0,70.4,29.83,South,179,1.0,5.0,80,0.00,,,0.00,VWS V12.08,2013-07-09 06:11:00,
2013-07-09 01:16:00,76.9,70.3,29.84,South,171,4.0,5.0,80,0.00,,,0.00,VWS V12.08,2013-07-09 06:16:00,
2013-07-09 01:21:00,76.6,70.3,29.84,SE,137,2.0,5.0,81,0.00,,,0.00,VWS V12.08,2013-07-09 06:21:00,
2013-07-09 01:26:00,76.6,70.3,29.84,SE,139,3.0,5.0,81,0.00,,,0.00,VWS V12.08,2013-07-09 06:26:00,
2013-07-09 01:31:00,76.5,70.6,29.83,ESE,120,2.0,4.0,82,0.00,,,0.00,VWS V12.08,2013-07-09 06:31:00,
2013-07-09 01:36:00,76.6,70.7,29.83,SSE,149,0.0,7.0,82,0.00,,,0.00,VWS V12.08,2013-07-09 06:36:00,
2013-07-09 01:41:00,76.6,70.7,29.83,East,96,0.0,7.0,82,0.00,,,0.00,VWS V12.08,2013-07-09 06:41:00,
2013-07-09 01:46:00,76.8,70.9,29.82,East,82,1.0,7.0,82,0.00,,,0.00,VWS V12.08,2013-07-09 06:46:00,
2013-07-09 01:51:00,77.0,71.1,29.82,East,90,0.0,7.0,82,0.00,,,0.00,VWS V12.08,2013-07-09 06:51:00,
2013-07-09 01:56:00,77.0,71.1,29.81,East,101,2.0,7.0,82,0.00,,,0.00,VWS V12.08,2013-07-09 06:56:00,
2013-07-09 02:01:00,77.1,71.2,29.81,East,80,1.0,1.0,82,0.00,,,0.00,VWS V12.08,2013-07-09 07:01:00,
2013-07-09 02:06:00,77.3,71.4,29.81,East,86,0.0,2.0,82,0.00,,,0.00,VWS V12.08,2013-07-09 07:06:00,
2013-07-09 02:11:00,77.2,71.3,29.81,ESE,121,2.0,4.0,82,0.00,,,0.00,VWS V12.08,2013-07-09 07:11:00,
2013-07-09 02:16:00,76.8,71.2,29.81,East,101,4.0,5.0,83,0.00,,,0.00,VWS V12.08,2013-07-09 07:16:00,
2013-07-09 02:21:00,76.4,71.2,29.80,East,80,0.0,5.0,84,0.00,,,0.00,VWS V12.08,2013-07-09 07:21:00,
2013-07-09 02:26:00,76.2,71.0,29.80,ESE,103,3.0,5.0,84,0.00,,,0.00,VWS V12.08,2013-07-09 07:26:00,
2013-07-09 02:31:00,76.1,71.3,29.80,SE,125,4.0,7.0,85,0.00,,,0.00,VWS V12.08,2013-07-09 07:31:00,
2013-07-09 02:36:00,76.0,71.2,29.80,SSE,153,5.0,7.0,85,0.00,,,0.00,VWS V12.08,2013-07-09 07:36:00,
2013-07-09 02:41:00,76.0,71.5,29.79,ESE,107,3.0,7.0,86,0.00,,,0.00,VWS V12.08,2013-07-09 07:41:00,
2013-07-09 02:46:00,75.9,71.1,29.79,SE,145,6.0,7.0,85,0.00,,,0.00,VWS V12.08,2013-07-09 07:46:00,
2013-07-09 02:52:00,75.5,71.4,29.78,ESE,109,5.0,9.0,87,0.00,,,0.00,VWS V12.08,2013-07-09 07:52:00,
2013-07-09 02:57:00,75.5,71.4,29.79,SSE,160,5.0,9.0,87,0.00,,,0.00,VWS V12.08,2013-07-09 07:57:00,
2013-07-09 03:02:00,75.4,71.3,29.78,SE,146,3.0,6.0,87,0.00,,,0.00,VWS V12.08,2013-07-09 08:02:00,
2013-07-09 03:07:00,75.3,71.5,29.77,South,176,2.0,6.0,88,0.00,,,0.00,VWS V12.08,2013-07-09 08:07:00,
2013-07-09 03:12:00,75.3,71.5,29.77,SE,128,2.0,7.0,88,0.00,,,0.00,VWS V12.08,2013-07-09 08:12:00,
2013-07-09 03:17:00,75.3,71.5,29.76,SE,128,2.0,7.0,88,0.00,,,0.00,VWS V12.08,2013-07-09 08:17:00,
2013-07-09 03:22:00,75.3,71.8,29.76,SSE,150,3.0,7.0,89,0.00,,,0.00,VWS V12.08,2013-07-09 08:22:00,
2013-07-09 03:27:00,75.3,71.8,29.76,SE,139,5.0,7.0,89,0.00,,,0.00,VWS V12.08,2013-07-09 08:27:00,
2013-07-09 03:32:00,75.1,71.6,29.76,SE,139,4.0,5.0,89,0.00,,,0.00,VWS V12.08,2013-07-09 08:32:00,
2013-07-09 03:37:00,75.0,71.5,29.76,SSW,196,1.0,5.0,89,0.00,,,0.00,VWS V12.08,2013-07-09 08:37:00,
2013-07-09 03:42:00,75.1,71.6,29.75,SE,142,4.0,5.0,89,0.00,,,0.00,VWS V12.08,2013-07-09 08:42:00,
2013-07-09 03:47:00,75.1,72.0,29.75,SSE,148,5.0,6.0,90,0.00,,,0.00,VWS V12.08,2013-07-09 08:47:00,
2013-07-09 03:52:00,75.0,71.9,29.75,South,188,5.0,6.0,90,0.00,,,0.00,VWS V12.08,2013-07-09 08:52:00,
2013-07-09 03:57:00,75.0,71.9,29.76,SW,219,2.0,6.0,90,0.00,,,0.00,VWS V12.08,2013-07-09 08:57:00,
2013-07-09 04:02:00,75.1,72.0,29.76,SSE,164,3.0,5.0,90,0.00,,,0.00,VWS V12.08,2013-07-09 09:02:00,
2013-07-09 04:07:00,75.2,72.1,29.76,SSE,151,3.0,5.0,90,0.00,,,0.00,VWS V12.08,2013-07-09 09:07:00,
2013-07-09 04:12:00,75.3,71.8,29.76,SSE,151,2.0,5.0,89,0.00,,,0.00,VWS V12.08,2013-07-09 09:12:00,
2013-07-09 04:17:00,75.3,71.8,29.76,SSE,152,2.0,5.0,89,0.00,,,0.00,VWS V12.08,2013-07-09 09:17:00,
2013-07-09 04:22:00,75.2,72.1,29.77,SSW,206,2.0,5.0,90,0.00,,,0.00,VWS V12.08,2013-07-09 09:22:00,
2013-07-09 04:27:00,75.1,72.0,29.77,SSW,200,2.0,5.0,90,0.00,,,0.00,VWS V12.08,2013-07-09 09:27:00,
2013-07-09 04:32:00,75.0,71.9,29.77,SSW,194,2.0,3.0,90,0.00,,,0.00,VWS V12.08,2013-07-09 09:32:00,
2013-07-09 04:37:00,75.0,71.9,29.77,South,169,2.0,3.0,90,0.00,,,0.00,VWS V12.08,2013-07-09 09:37:00,
2013-07-09 04:42:00,75.0,71.9,29.77,SSW,203,1.0,3.0,90,0.00,,,0.00,VWS V12.08,2013-07-09 09:42:00,
2013-07-09 04:47:00,75.0,71.9,29.77,SW,220,3.0,4.0,90,0.00,,,0.00,VWS V12.08,2013-07-09 09:47:00,
2013-07-09 04:52:00,75.1,72.0,29.78,SSW,207,3.0,4.0,90,0.00,,,0.00,VWS V12.08,2013-07-09 09:52:00,
2013-07-09 04:57:00,75.2,72.1,29.79,WSW,254,1.0,4.0,90,0.00,,,0.00,VWS V12.08,2013-07-09 09:57:00,
2013-07-09 05:02:00,75.1,72.3,29.80,West,265,2.0,3.0,91,0.01,,,0.01,VWS V12.08,2013-07-09 10:02:00,
2013-07-09 05:07:00,74.9,72.1,29.81,WNW,291,5.0,8.0,91,0.01,,,0.01,VWS V12.08,2013-07-09 10:07:00,
2013-07-09 05:12:00,74.8,72.0,29.81,WNW,288,5.0,8.0,91,0.02,,,0.02,VWS V12.08,2013-07-09 10:12:00,
2013-07-09 05:17:00,74.8,72.0,29.82,WSW,248,5.0,8.0,91,0.02,,,0.02,VWS V12.08,2013-07-09 10:17:00,
2013-07-09 05:22:00,75.0,71.9,29.83,WSW,249,4.0,13.0,90,0.03,,,0.03,VWS V12.08,2013-07-09 10:22:00,
2013-07-09 05:27:00,75.3,71.8,29.83,SW,226,5.0,13.0,89,0.04,,,0.04,VWS V12.08,2013-07-09 10:27:00,
2013-07-09 05:32:00,75.3,71.8,29.84,West,271,5.0,14.0,89,0.05,,,0.05,VWS V12.08,2013-07-09 10:32:00,
2013-07-09 05:37:00,75.1,71.6,29.85,West,267,8.0,14.0,89,0.06,,,0.06,VWS V12.08,2013-07-09 10:37:00,
2013-07-09 05:42:00,74.9,71.8,29.86,WSW,242,11.0,19.0,90,0.07,,,0.07,VWS V12.08,2013-07-09 10:42:00,
2013-07-09 05:47:00,73.3,69.2,29.88,NW,319,25.0,31.0,87,0.10,,,0.10,VWS V12.08,2013-07-09 10:47:00,
2013-07-09 05:52:00,69.4,65.4,29.89,NNW,344,7.0,31.0,87,0.12,,,0.13,VWS V12.08,2013-07-09 10:52:00,
2013-07-09 05:57:00,67.7,64.3,29.88,NW,307,13.0,31.0,89,0.14,,,0.14,VWS V12.08,2013-07-09 10:57:00,
2013-07-09 06:02:00,66.8,64.1,29.87,WNW,296,16.0,22.0,91,0.15,,,0.16,VWS V12.08,2013-07-09 11:02:00,
2013-07-09 06:07:00,66.4,64.0,29.86,NW,311,14.0,22.0,92,0.15,,,0.16,VWS V12.08,2013-07-09 11:07:00,
2013-07-09 06:12:00,66.3,63.9,29.85,East,91,2.0,22.0,92,0.15,,,0.16,VWS V12.08,2013-07-09 11:12:00,
2013-07-09 06:17:00,66.3,63.9,29.85,West,264,1.0,22.0,92,0.15,,,0.16,VWS V12.08,2013-07-09 11:17:00,
2013-07-09 06:22:00,66.2,63.8,29.85,North,350,9.0,22.0,92,0.15,,,0.16,VWS V12.08,2013-07-09 11:22:00,
2013-07-09 06:27:00,66.4,63.7,29.84,NNE,22,3.0,22.0,91,0.15,,,0.16,VWS V12.08,2013-07-09 11:27:00,
2013-07-09 06:32:00,66.7,64.0,29.83,NE,55,5.0,6.0,91,0.11,,,0.16,VWS V12.08,2013-07-09 11:32:00,
2013-07-09 06:37:00,66.8,63.8,29.83,East,82,8.0,15.0,90,0.12,,,0.18,VWS V12.08,2013-07-09 11:37:00,
2013-07-09 06:42:00,66.8,64.1,29.81,ESE,110,4.0,15.0,91,0.13,,,0.18,VWS V12.08,2013-07-09 11:42:00,
2013-07-09 06:47:00,66.7,64.0,29.81,ENE,70,10.0,15.0,91,0.13,,,0.18,VWS V12.08,2013-07-09 11:47:00,
2013-07-09 06:52:00,66.7,64.0,29.79,East,93,9.0,15.0,91,0.13,,,0.18,VWS V12.08,2013-07-09 11:52:00,
2013-07-09 06:57:00,66.7,64.0,29.76,ENE,74,16.0,17.0,91,0.14,,,0.19,VWS V12.08,2013-07-09 11:57:00,
2013-07-09 07:02:00,66.8,64.1,29.78,ENE,73,1.0,4.0,91,0.04,,,0.19,VWS V12.08,2013-07-09 12:02:00,
2013-07-09 07:07:00,66.8,64.1,29.78,East,94,3.0,11.0,91,0.04,,,0.19,VWS V12.08,2013-07-09 12:07:00,
2013-07-09 07:12:00,66.8,64.1,29.77,ESE,121,11.0,11.0,91,0.04,,,0.19,VWS V12.08,2013-07-09 12:12:00,
2013-07-09 07:17:00,66.8,64.1,29.77,SE,131,5.0,11.0,91,0.04,,,0.19,VWS V12.08,2013-07-09 12:17:00,
2013-07-09 07:22:00,66.8,64.1,29.77,SE,140,5.0,11.0,91,0.04,,,0.19,VWS V12.08,2013-07-09 12:22:00,
2013-07-09 07:27:00,66.9,64.2,29.77,SSE,163,2.0,11.0,91,0.04,,,0.19,VWS V12.08,2013-07-09 12:27:00,
2013-07-09 07:32:00,67.0,64.6,29.78,South,183,6.0,8.0,92,0.03,,,0.19,VWS V12.08,2013-07-09 12:32:00,
2013-07-09 07:37:00,67.0,64.6,29.77,SSE,165,6.0,11.0,92,0.03,,,0.19,VWS V12.08,2013-07-09 12:37:00,
2013-07-09 07:42:00,67.0,64.6,29.77,South,173,5.0,11.0,92,0.03,,,0.19,VWS V12.08,2013-07-09 12:42:00,
2013-07-09 07:47:00,67.0,64.6,29.77,SSE,164,3.0,11.0,92,0.03,,,0.19,VWS V12.08,2013-07-09 12:47:00,
2013-07-09 07:52:00,67.0,64.6,29.77,SSW,207,5.0,11.0,92,0.03,,,0.19,VWS V12.08,2013-07-09 12:52:00,
2013-07-09 07:57:00,67.1,64.7,29.77,South,188,7.0,11.0,92,0.03,,,0.19,VWS V12.08,2013-07-09 12:57:00,
2013-07-09 08:02:00,67.2,64.8,29.77,SSW,195,4.0,7.0,92,0.00,,,0.19,VWS V12.08,2013-07-09 13:02:00,
2013-07-09 08:07:00,67.3,64.9,29.77,SW,223,6.0,13.0,92,0.00,,,0.19,VWS V12.08,2013-07-09 13:07:00,
2013-07-09 08:12:00,67.3,64.9,29.78,South,175,7.0,13.0,92,0.00,,,0.19,VWS V12.08,2013-07-09 13:12:00,
2013-07-09 08:17:00,67.4,65.0,29.78,SSW,211,8.0,13.0,92,0.00,,,0.19,VWS V12.08,2013-07-09 13:17:00,
2013-07-09 08:22:00,67.6,65.2,29.77,South,184,5.0,13.0,92,0.00,,,0.19,VWS V12.08,2013-07-09 13:22:00,
2013-07-09 08:27:00,68.0,65.3,29.77,SW,222,4.0,13.0,91,0.00,,,0.19,VWS V12.08,2013-07-09 13:27:00,
2013-07-09 08:32:00,68.5,65.8,29.77,SW,221,7.0,11.0,91,0.00,,,0.19,VWS V12.08,2013-07-09 13:32:00,
2013-07-09 08:37:00,69.0,65.6,29.77,South,183,9.0,13.0,89,0.00,,,0.19,VWS V12.08,2013-07-09 13:37:00,
2013-07-09 08:42:00,69.5,66.1,29.77,SSE,148,3.0,13.0,89,0.00,,,0.19,VWS V12.08,2013-07-09 13:42:00,
2013-07-09 08:47:00,69.9,66.5,29.77,South,182,5.0,13.0,89,0.00,,,0.19,VWS V12.08,2013-07-09 13:47:00,
2013-07-09 08:52:00,70.5,66.8,29.77,SSW,210,4.0,13.0,88,0.00,,,0.19,VWS V12.08,2013-07-09 13:52:00,
2013-07-09 08:57:00,71.0,66.9,29.77,SSW,205,6.0,13.0,87,0.00,,,0.19,VWS V12.08,2013-07-09 13:57:00,
2013-07-09 09:02:00,71.6,67.2,29.77,SSW,206,4.0,7.0,86,0.00,,,0.19,VWS V12.08,2013-07-09 14:02:00,
2013-07-09 09:07:00,72.0,67.6,29.77,SSW,203,3.0,10.0,86,0.00,,,0.19,VWS V12.08,2013-07-09 14:07:00,
2013-07-09 09:12:00,72.8,68.0,29.78,SW,230,4.0,10.0,85,0.00,,,0.19,VWS V12.08,2013-07-09 14:12:00,
2013-07-09 09:17:00,73.2,68.1,29.78,ESE,123,4.0,10.0,84,0.00,,,0.19,VWS V12.08,2013-07-09 14:17:00,
2013-07-09 09:22:00,73.7,68.6,29.78,SSW,211,9.0,10.0,84,0.00,,,0.19,VWS V12.08,2013-07-09 14:22:00,
2013-07-09 09:27:00,74.2,68.7,29.78,SW,218,12.0,12.0,83,0.00,,,0.19,VWS V12.08,2013-07-09 14:27:00,
2013-07-09 09:32:00,74.8,68.9,29.78,SW,232,6.0,10.0,82,0.00,,,0.19,VWS V12.08,2013-07-09 14:32:00,
2013-07-09 09:37:00,75.4,69.5,29.78,SSW,198,7.0,11.0,82,0.00,,,0.19,VWS V12.08,2013-07-09 14:37:00,
2013-07-09 09:42:00,75.9,69.7,29.78,SW,219,7.0,11.0,81,0.00,,,0.19,VWS V12.08,2013-07-09 14:42:00,
2013-07-09 09:47:00,76.4,69.8,29.78,SSW,205,6.0,11.0,80,0.00,,,0.19,VWS V12.08,2013-07-09 14:47:00,
2013-07-09 09:52:00,76.8,70.2,29.78,SW,233,5.0,11.0,80,0.00,,,0.19,VWS V12.08,2013-07-09 14:52:00,
2013-07-09 09:57:00,77.4,70.4,29.79,WSW,242,4.0,11.0,79,0.00,,,0.19,VWS V12.08,2013-07-09 14:57:00,
2013-07-09 10:02:00,77.8,70.8,29.79,West,259,9.0,9.0,79,0.00,,,0.19,VWS V12.08,2013-07-09 15:02:00,
2013-07-09 10:07:00,77.8,70.8,29.79,SW,230,14.0,14.0,79,0.00,,,0.19,VWS V12.08,2013-07-09 15:07:00,
2013-07-09 10:12:00,78.2,71.2,29.79,SSW,202,12.0,14.0,79,0.00,,,0.19,VWS V12.08,2013-07-09 15:12:00,
2013-07-09 10:17:00,78.6,71.6,29.79,WSW,237,6.0,14.0,79,0.00,,,0.19,VWS V12.08,2013-07-09 15:17:00,
2013-07-09 10:22:00,78.9,71.8,29.80,SSW,209,5.0,14.0,79,0.00,,,0.19,VWS V12.08,2013-07-09 15:22:00,
2013-07-09 10:27:00,79.4,71.9,29.80,SSW,202,5.0,14.0,78,0.00,,,0.19,VWS V12.08,2013-07-09 15:27:00,
2013-07-09 10:32:00,80.1,71.1,29.80,WSW,257,10.0,14.0,74,0.00,,,0.19,VWS V12.08,2013-07-09 15:32:00,
2013-07-09 10:37:00,80.0,71.4,29.80,WSW,243,5.0,14.0,75,0.00,,,0.19,VWS V12.08,2013-07-09 15:37:00,
2013-07-09 10:42:00,80.4,72.2,29.80,SSW,196,3.0,14.0,76,0.00,,,0.19,VWS V12.08,2013-07-09 15:42:00,
2013-07-09 10:47:00,81.0,71.9,29.81,WSW,249,9.0,14.0,74,0.00,,,0.19,VWS V12.08,2013-07-09 15:47:00,
2013-07-09 10:52:00,80.9,71.8,29.81,SW,234,10.0,15.0,74,0.00,,,0.19,VWS V12.08,2013-07-09 15:52:00,
2013-07-09 10:57:00,81.1,71.6,29.81,West,268,14.0,18.0,73,0.00,,,0.19,VWS V12.08,2013-07-09 15:57:00,
2013-07-09 11:02:00,81.5,72.0,29.81,WSW,254,11.0,14.0,73,0.00,,,0.19,VWS V12.08,2013-07-09 16:02:00,
2013-07-09 11:07:00,81.4,72.7,29.81,WSW,254,6.0,15.0,75,0.00,,,0.19,VWS V12.08,2013-07-09 16:07:00,
2013-07-09 11:12:00,81.5,72.8,29.81,West,264,4.0,15.0,75,0.00,,,0.19,VWS V12.08,2013-07-09 16:12:00,
2013-07-09 11:17:00,81.9,73.2,29.81,WSW,244,11.0,15.0,75,0.00,,,0.19,VWS V12.08,2013-07-09 16:17:00,
2013-07-09 11:22:00,81.8,72.7,29.81,WSW,242,7.0,17.0,74,0.00,,,0.19,VWS V12.08,2013-07-09 16:22:00,
2013-07-09 11:27:00,82.0,72.9,29.81,West,261,7.0,17.0,74,0.00,,,0.19,VWS V12.08,2013-07-09 16:27:00,
2013-07-09 11:32:00,82.3,73.6,29.81,WSW,249,3.0,10.0,75,0.00,,,0.19,VWS V12.08,2013-07-09 16:32:00,
2013-07-09 11:37:00,82.9,72.9,29.82,West,263,11.0,18.0,72,0.00,,,0.19,VWS V12.08,2013-07-09 16:37:00,
2013-07-09 11:42:00,82.7,72.3,29.82,SW,223,13.0,19.0,71,0.00,,,0.19,VWS V12.08,2013-07-09 16:42:00,
2013-07-09 11:47:00,82.9,72.1,29.82,East,84,6.0,19.0,70,0.00,,,0.19,VWS V12.08,2013-07-09 16:47:00,
2013-07-09 11:52:00,83.2,72.4,29.82,WNW,286,5.0,19.0,70,0.00,,,0.19,VWS V12.08,2013-07-09 16:52:00,
2013-07-09 11:57:00,83.2,71.6,29.82,WSW,240,9.0,19.0,68,0.00,,,0.19,VWS V12.08,2013-07-09 16:57:00,
2013-07-09 12:02:00,83.7,71.6,29.82,West,271,7.0,14.0,67,0.00,,,0.19,VWS V12.08,2013-07-09 17:02:00,
2013-07-09 12:07:00,83.9,70.9,29.82,West,267,11.0,18.0,65,0.00,,,0.19,VWS V12.08,2013-07-09 17:07:00,
2013-07-09 12:12:00,83.9,71.3,29.82,WSW,238,12.0,21.0,66,0.00,,,0.19,VWS V12.08,2013-07-09 17:12:00,
2013-07-09 12:17:00,84.1,71.5,29.82,WSW,249,10.0,21.0,66,0.00,,,0.19,VWS V12.08,2013-07-09 17:17:00,
2013-07-09 12:22:00,84.5,71.4,29.83,WSW,242,10.0,21.0,65,0.00,,,0.19,VWS V12.08,2013-07-09 17:22:00,
2013-07-09 12:27:00,84.2,70.7,29.83,SW,219,6.0,21.0,64,0.00,,,0.19,VWS V12.08,2013-07-09 17:27:00,
2013-07-09 12:32:00,84.1,71.1,29.82,WSW,248,10.0,13.0,65,0.00,,,0.19,VWS V12.08,2013-07-09 17:32:00,
2013-07-09 12:37:00,84.3,70.3,29.82,NW,306,19.0,20.0,63,0.00,,,0.19,VWS V12.08,2013-07-09 17:37:00,
2013-07-09 12:42:00,84.4,69.5,29.83,WSW,246,15.0,23.0,61,0.00,,,0.19,VWS V12.08,2013-07-09 17:42:00,
2013-07-09 12:47:00,84.2,68.3,29.82,WNW,296,14.0,23.0,59,0.00,,,0.19,VWS V12.08,2013-07-09 17:47:00,
2013-07-09 12:52:00,84.2,68.8,29.82,WNW,296,16.0,23.0,60,0.00,,,0.19,VWS V12.08,2013-07-09 17:52:00,
2013-07-09 12:57:00,84.1,69.2,29.82,WSW,256,9.0,23.0,61,0.00,,,0.19,VWS V12.08,2013-07-09 17:57:00,
2013-07-09 13:02:00,83.7,68.3,29.82,WNW,291,8.0,14.0,60,0.00,,,0.19,VWS V12.08,2013-07-09 18:02:00,
2013-07-09 13:07:00,83.9,68.5,29.83,WSW,245,7.0,16.0,60,0.00,,,0.19,VWS V12.08,2013-07-09 18:07:00,
2013-07-09 13:12:00,83.9,68.5,29.82,WNW,283,15.0,18.0,60,0.00,,,0.19,VWS V12.08,2013-07-09 18:12:00,
2013-07-09 13:17:00,83.6,67.8,29.83,NW,304,10.0,22.0,59,0.00,,,0.19,VWS V12.08,2013-07-09 18:17:00,
2013-07-09 13:22:00,83.5,67.7,29.83,West,279,10.0,22.0,59,0.00,,,0.19,VWS V12.08,2013-07-09 18:22:00,
2013-07-09 13:27:00,83.5,67.7,29.83,WNW,286,6.0,22.0,59,0.00,,,0.19,VWS V12.08,2013-07-09 18:27:00,
2013-07-09 13:32:00,83.2,68.8,29.82,West,269,6.0,11.0,62,0.00,,,0.19,VWS V12.08,2013-07-09 18:32:00,
2013-07-09 13:37:00,83.4,68.6,29.82,West,269,5.0,16.0,61,0.00,,,0.19,VWS V12.08,2013-07-09 18:37:00,
2013-07-09 13:42:00,83.7,69.8,29.82,West,268,7.0,16.0,63,0.00,,,0.19,VWS V12.08,2013-07-09 18:42:00,
2013-07-09 13:47:00,83.4,69.5,29.83,WNW,286,15.0,18.0,63,0.00,,,0.19,VWS V12.08,2013-07-09 18:47:00,
2013-07-09 13:52:00,82.4,69.9,29.83,WNW,290,14.0,18.0,66,0.00,,,0.19,VWS V12.08,2013-07-09 18:52:00,
2013-07-09 13:57:00,82.4,69.9,29.83,West,279,14.0,18.0,66,0.00,,,0.19,VWS V12.08,2013-07-09 18:57:00,
2013-07-09 14:02:00,82.3,69.4,29.83,West,263,10.0,17.0,65,0.00,,,0.19,VWS V12.08,2013-07-09 19:02:00,
2013-07-09 14:07:00,82.2,68.8,29.83,WNW,290,16.0,21.0,64,0.00,,,0.19,VWS V12.08,2013-07-09 19:07:00,
2013-07-09 14:12:00,82.0,68.6,29.83,WNW,297,11.0,21.0,64,0.00,,,0.19,VWS V12.08,2013-07-09 19:12:00,
2013-07-09 14:17:00,82.6,69.2,29.83,West,273,11.0,21.0,64,0.00,,,0.19,VWS V12.08,2013-07-09 19:17:00,
2013-07-09 14:22:00,82.2,70.2,29.84,WSW,252,6.0,21.0,67,0.00,,,0.19,VWS V12.08,2013-07-09 19:22:00,
2013-07-09 14:27:00,82.1,69.6,29.84,WSW,241,17.0,21.0,66,0.00,,,0.19,VWS V12.08,2013-07-09 19:27:00,
2013-07-09 14:32:00,82.4,69.0,29.84,WNW,284,9.0,12.0,64,0.00,,,0.19,VWS V12.08,2013-07-09 19:32:00,
2013-07-09 14:37:00,82.1,69.2,29.84,West,272,9.0,20.0,65,0.00,,,0.19,VWS V12.08,2013-07-09 19:37:00,
2013-07-09 14:42:00,82.3,68.9,29.84,WNW,302,8.0,20.0,64,0.00,,,0.19,VWS V12.08,2013-07-09 19:42:00,
2013-07-09 14:47:00,82.5,68.2,29.84,WNW,290,6.0,20.0,62,0.00,,,0.19,VWS V12.08,2013-07-09 19:47:00,
2013-07-09 14:52:00,82.4,67.6,29.84,West,277,10.0,20.0,61,0.00,,,0.19,VWS V12.08,2013-07-09 19:52:00,
2013-07-09 14:57:00,82.8,68.5,29.84,West,263,6.0,20.0,62,0.00,,,0.19,VWS V12.08,2013-07-09 19:57:00,
2013-07-09 15:02:00,82.8,68.5,29.84,WNW,283,8.0,12.0,62,0.00,,,0.19,VWS V12.08,2013-07-09 20:02:00,
2013-07-09 15:07:00,83.0,68.7,29.84,West,279,15.0,15.0,62,0.00,,,0.19,VWS V12.08,2013-07-09 20:07:00,
2013-07-09 15:12:00,83.2,68.4,29.84,NW,319,9.0,15.0,61,0.00,,,0.19,VWS V12.08,2013-07-09 20:12:00,
2013-07-09 15:17:00,83.0,68.7,29.84,NW,310,10.0,15.0,62,0.00,,,0.19,VWS V12.08,2013-07-09 20:17:00,
2013-07-09 15:21:00,82.9,68.6,29.84,WSW,248,8.0,15.0,62,0.00,,,0.19,VWS V12.08,2013-07-09 20:21:00,
2013-07-09 15:26:00,83.0,68.2,29.84,NW,305,10.0,17.0,61,0.00,,,0.19,VWS V12.08,2013-07-09 20:26:00,
2013-07-09 15:31:00,82.8,68.5,29.84,WNW,282,11.0,13.0,62,0.00,,,0.19,VWS V12.08,2013-07-09 20:31:00,
2013-07-09 15:36:00,82.7,68.4,29.84,NW,317,10.0,19.0,62,0.00,,,0.19,VWS V12.08,2013-07-09 20:36:00,
2013-07-09 15:41:00,83.1,68.3,29.84,NW,315,6.0,21.0,61,0.00,,,0.19,VWS V12.08,2013-07-09 20:41:00,
2013-07-09 15:46:00,83.0,68.7,29.85,WNW,302,2.0,21.0,62,0.00,,,0.19,VWS V12.08,2013-07-09 20:46:00,
2013-07-09 15:51:00,83.1,68.3,29.85,West,259,9.0,21.0,61,0.00,,,0.19,VWS V12.08,2013-07-09 20:51:00,
2013-07-09 15:56:00,83.0,68.7,29.85,WNW,297,14.0,21.0,62,0.00,,,0.19,VWS V12.08,2013-07-09 20:56:00,
2013-07-09 16:01:00,82.9,68.6,29.85,WNW,303,12.0,15.0,62,0.00,,,0.19,VWS V12.08,2013-07-09 21:01:00,
2013-07-09 16:06:00,82.8,68.5,29.85,West,281,10.0,17.0,62,0.00,,,0.19,VWS V12.08,2013-07-09 21:06:00,
2013-07-09 16:11:00,82.7,67.9,29.85,WNW,286,10.0,18.0,61,0.00,,,0.19,VWS V12.08,2013-07-09 21:11:00,
2013-07-09 16:16:00,82.7,67.9,29.85,WNW,299,15.0,18.0,61,0.00,,,0.19,VWS V12.08,2013-07-09 21:16:00,
2013-07-09 16:21:00,82.6,68.7,29.85,WNW,287,9.0,18.0,63,0.00,,,0.19,VWS V12.08,2013-07-09 21:21:00,
2013-07-09 16:26:00,82.8,68.5,29.85,West,280,14.0,20.0,62,0.00,,,0.19,VWS V12.08,2013-07-09 21:26:00,
2013-07-09 16:31:00,83.1,68.3,29.85,WNW,289,12.0,18.0,61,0.00,,,0.19,VWS V12.08,2013-07-09 21:31:00,
2013-07-09 16:36:00,83.0,69.1,29.85,WNW,296,5.0,18.0,63,0.00,,,0.19,VWS V12.08,2013-07-09 21:36:00,
2013-07-09 16:41:00,83.2,66.9,29.85,WNW,298,18.0,19.0,58,0.00,,,0.19,VWS V12.08,2013-07-09 21:41:00,
2013-07-09 16:46:00,83.1,67.8,29.85,NNW,333,9.0,19.0,60,0.00,,,0.19,VWS V12.08,2013-07-09 21:46:00,
2013-07-09 16:51:00,83.5,68.7,29.85,West,281,10.0,19.0,61,0.00,,,0.19,VWS V12.08,2013-07-09 21:51:00,
2013-07-09 16:56:00,83.6,68.7,29.85,WNW,298,14.0,21.0,61,0.00,,,0.19,VWS V12.08,2013-07-09 21:56:00,
2013-07-09 17:01:00,83.5,67.2,29.85,NW,309,12.0,14.0,58,0.00,,,0.19,VWS V12.08,2013-07-09 22:01:00,
2013-07-09 17:06:00,83.1,68.3,29.85,WNW,299,10.0,17.0,61,0.00,,,0.19,VWS V12.08,2013-07-09 22:06:00,
2013-07-09 17:11:00,83.2,68.4,29.85,WNW,302,4.0,17.0,61,0.00,,,0.19,VWS V12.08,2013-07-09 22:11:00,
2013-07-09 17:16:00,83.8,68.0,29.85,NNW,328,12.0,17.0,59,0.00,,,0.19,VWS V12.08,2013-07-09 22:16:00,
2013-07-09 17:21:00,83.4,68.1,29.85,NW,311,11.0,17.0,60,0.00,,,0.19,VWS V12.08,2013-07-09 22:21:00,
2013-07-09 17:26:00,83.4,67.6,29.85,NNW,331,12.0,19.0,59,0.00,,,0.19,VWS V12.08,2013-07-09 22:26:00,
2013-07-09 17:31:00,83.5,68.2,29.86,WNW,293,6.0,12.0,60,0.00,,,0.19,VWS V12.08,2013-07-09 22:31:00,
2013-07-09 17:36:00,83.3,68.0,29.86,NW,306,17.0,17.0,60,0.00,,,0.19,VWS V12.08,2013-07-09 22:36:00,
2013-07-09 17:41:00,83.3,68.0,29.86,WNW,288,4.0,17.0,60,0.00,,,0.19,VWS V12.08,2013-07-09 22:41:00,
2013-07-09 17:46:00,83.2,67.9,29.85,NW,315,4.0,19.0,60,0.00,,,0.19,VWS V12.08,2013-07-09 22:46:00,
2013-07-09 17:51:00,83.6,68.3,29.86,West,281,10.0,19.0,60,0.00,,,0.19,VWS V12.08,2013-07-09 22:51:00,
2013-07-09 17:56:00,83.6,67.3,29.86,WNW,300,3.0,19.0,58,0.00,,,0.19,VWS V12.08,2013-07-09 22:56:00,
2013-07-09 18:01:00,83.6,67.8,29.85,WNW,296,7.0,13.0,59,0.00,,,0.19,VWS V12.08,2013-07-09 23:01:00,
2013-07-09 18:06:00,83.5,67.7,29.85,WNW,295,15.0,15.0,59,0.00,,,0.19,VWS V12.08,2013-07-09 23:06:00,
2013-07-09 18:11:00,83.3,68.0,29.85,NW,309,15.0,18.0,60,0.00,,,0.19,VWS V12.08,2013-07-09 23:11:00,
2013-07-09 18:16:00,83.1,67.3,29.85,West,269,2.0,18.0,59,0.00,,,0.19,VWS V12.08,2013-07-09 23:16:00,
2013-07-09 18:21:00,83.3,66.5,29.85,NW,319,11.0,18.0,57,0.00,,,0.19,VWS V12.08,2013-07-09 23:21:00,
2013-07-09 18:26:00,83.2,66.9,29.85,WNW,296,6.0,18.0,58,0.00,,,0.19,VWS V12.08,2013-07-09 23:26:00,
2013-07-09 18:31:00,83.2,67.9,29.85,NW,311,6.0,12.0,60,0.00,,,0.19,VWS V12.08,2013-07-09 23:31:00,
2013-07-09 18:36:00,82.9,68.1,29.85,NW,306,3.0,16.0,61,0.00,,,0.19,VWS V12.08,2013-07-09 23:36:00,
2013-07-09 18:41:00,82.9,66.6,29.85,NW,317,9.0,16.0,58,0.00,,,0.19,VWS V12.08,2013-07-09 23:41:00,
2013-07-09 18:46:00,82.8,67.0,29.85,NNW,344,6.0,16.0,59,0.00,,,0.19,VWS V12.08,2013-07-09 23:46:00,
2013-07-09 18:51:00,82.7,66.4,29.85,WNW,302,7.0,16.0,58,0.00,,,0.19,VWS V12.08,2013-07-09 23:51:00,
2013-07-09 18:56:00,82.6,65.8,29.85,NW,306,6.0,16.0,57,0.00,,,0.19,VWS V12.08,2013-07-09 23:56:00,
2013-07-09 19:01:00,82.8,66.5,29.85,WNW,295,7.0,10.0,58,0.00,,,0.19,VWS V12.08,2013-07-10 00:01:00,
2013-07-09 19:06:00,82.7,66.9,29.85,North,349,6.0,13.0,59,0.00,,,0.19,VWS V12.08,2013-07-10 00:06:00,
2013-07-09 19:11:00,82.6,66.8,29.85,SSE,161,2.0,15.0,59,0.00,,,0.19,VWS V12.08,2013-07-10 00:11:00,
2013-07-09 19:16:00,82.7,66.4,29.86,NE,47,5.0,15.0,58,0.00,,,0.19,VWS V12.08,2013-07-10 00:16:00,
2013-07-09 19:21:00,82.5,66.7,29.86,NW,325,4.0,15.0,59,0.00,,,0.19,VWS V12.08,2013-07-10 00:21:00,
2013-07-09 19:26:00,82.4,66.7,29.86,NW,309,11.0,15.0,59,0.00,,,0.19,VWS V12.08,2013-07-10 00:26:00,
2013-07-09 19:31:00,82.4,67.1,29.86,North,11,5.0,9.0,60,0.00,,,0.19,VWS V12.08,2013-07-10 00:31:00,
2013-07-09 19:36:00,82.2,66.5,29.86,NW,319,13.0,14.0,59,0.00,,,0.19,VWS V12.08,2013-07-10 00:36:00,
2013-07-09 19:41:00,81.9,66.2,29.86,NW,312,10.0,14.0,59,0.00,,,0.19,VWS V12.08,2013-07-10 00:41:00,
2013-07-09 19:46:00,81.8,66.6,29.86,NNW,338,7.0,14.0,60,0.00,,,0.19,VWS V12.08,2013-07-10 00:46:00,
2013-07-09 19:51:00,81.8,66.6,29.86,NW,325,3.0,14.0,60,0.00,,,0.19,VWS V12.08,2013-07-10 00:51:00,
2013-07-09 19:56:00,82.0,67.2,29.86,WNW,300,6.0,14.0,61,0.00,,,0.19,VWS V12.08,2013-07-10 00:56:00,
2013-07-09 20:01:00,81.6,67.3,29.86,NNW,342,4.0,5.0,62,0.00,,,0.19,VWS V12.08,2013-07-10 01:01:00,
2013-07-09 20:06:00,81.3,67.5,29.86,NW,323,4.0,11.0,63,0.00,,,0.19,VWS V12.08,2013-07-10 01:06:00,
2013-07-09 20:11:00,81.3,67.5,29.86,WNW,284,9.0,11.0,63,0.00,,,0.19,VWS V12.08,2013-07-10 01:11:00,
2013-07-09 20:16:00,81.1,67.8,29.86,NNW,329,1.0,11.0,64,0.00,,,0.19,VWS V12.08,2013-07-10 01:16:00,
2013-07-09 20:21:00,80.9,67.1,29.86,NNW,328,4.0,11.0,63,0.00,,,0.19,VWS V12.08,2013-07-10 01:21:00,
2013-07-09 20:26:00,80.5,66.8,29.86,NW,318,4.0,11.0,63,0.00,,,0.19,VWS V12.08,2013-07-10 01:26:00,
2013-07-09 20:31:00,80.3,67.0,29.86,NNW,335,4.0,4.0,64,0.00,,,0.19,VWS V12.08,2013-07-10 01:31:00,
2013-07-09 20:36:00,80.1,66.8,29.86,NW,319,4.0,9.0,64,0.00,,,0.19,VWS V12.08,2013-07-10 01:36:00,
2013-07-09 20:41:00,79.9,67.1,29.86,NW,313,4.0,9.0,65,0.00,,,0.19,VWS V12.08,2013-07-10 01:41:00,
2013-07-09 20:46:00,79.5,67.2,29.87,North,349,5.0,9.0,66,0.00,,,0.19,VWS V12.08,2013-07-10 01:46:00,
2013-07-09 20:51:00,79.1,66.8,29.87,NNE,20,0.0,9.0,66,0.00,,,0.19,VWS V12.08,2013-07-10 01:51:00,
2013-07-09 20:56:00,78.7,66.8,29.87,WNW,288,2.0,9.0,67,0.00,,,0.19,VWS V12.08,2013-07-10 01:56:00,
2013-07-09 21:01:00,78.3,66.9,29.87,NW,307,4.0,5.0,68,0.00,,,0.19,VWS V12.08,2013-07-10 02:01:00,
2013-07-09 21:06:00,78.0,66.6,29.88,WNW,303,3.0,6.0,68,0.00,,,0.19,VWS V12.08,2013-07-10 02:06:00,
2013-07-09 21:11:00,77.7,66.7,29.88,WNW,284,2.0,6.0,69,0.00,,,0.19,VWS V12.08,2013-07-10 02:11:00,
2013-07-09 21:16:00,77.4,66.9,29.88,NW,313,4.0,6.0,70,0.00,,,0.19,VWS V12.08,2013-07-10 02:16:00,
2013-07-09 21:21:00,77.0,66.9,29.89,NNW,331,2.0,6.0,71,0.00,,,0.19,VWS V12.08,2013-07-10 02:21:00,
2013-07-09 21:26:00,76.6,66.9,29.89,WNW,287,3.0,6.0,72,0.00,,,0.19,VWS V12.08,2013-07-10 02:26:00,
2013-07-09 21:31:00,76.3,66.6,29.89,WNW,297,2.0,5.0,72,0.00,,,0.19,VWS V12.08,2013-07-10 02:31:00,
2013-07-09 21:36:00,76.1,66.8,29.89,NW,312,3.0,6.0,73,0.00,,,0.19,VWS V12.08,2013-07-10 02:36:00,
2013-07-09 21:41:00,75.9,67.0,29.90,WNW,289,5.0,6.0,74,0.00,,,0.19,VWS V12.08,2013-07-10 02:41:00,
2013-07-09 21:46:00,75.7,66.8,29.90,WSW,257,3.0,6.0,74,0.00,,,0.19,VWS V12.08,2013-07-10 02:46:00,
2013-07-09 21:51:00,75.6,66.7,29.90,WNW,292,2.0,6.0,74,0.00,,,0.19,VWS V12.08,2013-07-10 02:51:00,
2013-07-09 21:56:00,75.5,67.0,29.91,WNW,282,0.0,6.0,75,0.00,,,0.19,VWS V12.08,2013-07-10 02:56:00,
2013-07-09 22:01:00,75.3,67.2,29.91,West,273,0.0,0.0,76,0.00,,,0.19,VWS V12.08,2013-07-10 03:01:00,
2013-07-09 22:06:00,75.0,66.9,29.91,West,273,1.0,2.0,76,0.00,,,0.19,VWS V12.08,2013-07-10 03:06:00,
2013-07-09 22:11:00,74.7,67.0,29.91,West,264,2.0,3.0,77,0.00,,,0.19,VWS V12.08,2013-07-10 03:11:00,
2013-07-09 22:16:00,74.4,67.1,29.92,West,266,1.0,3.0,78,0.00,,,0.19,VWS V12.08,2013-07-10 03:16:00,
2013-07-09 22:21:00,74.2,67.3,29.92,WSW,250,1.0,3.0,79,0.00,,,0.19,VWS V12.08,2013-07-10 03:21:00,
2013-07-09 22:26:00,74.0,67.4,29.92,West,279,1.0,3.0,80,0.00,,,0.19,VWS V12.08,2013-07-10 03:26:00,
2013-07-09 22:31:00,74.0,67.4,29.92,WSW,254,0.0,0.0,80,0.00,,,0.19,VWS V12.08,2013-07-10 03:31:00,
2013-07-09 22:36:00,73.9,67.3,29.92,West,279,1.0,3.0,80,0.00,,,0.19,VWS V12.08,2013-07-10 03:36:00,
2013-07-09 22:41:00,73.7,67.2,29.92,West,280,3.0,5.0,80,0.00,,,0.19,VWS V12.08,2013-07-10 03:41:00,
2013-07-09 22:46:00,73.5,67.3,29.92,West,276,4.0,5.0,81,0.00,,,0.19,VWS V12.08,2013-07-10 03:46:00,
2013-07-09 22:51:00,73.2,67.4,29.92,West,280,4.0,5.0,82,0.00,,,0.19,VWS V12.08,2013-07-10 03:51:00,
2013-07-09 22:56:00,73.1,67.3,29.91,West,277,5.0,6.0,82,0.00,,,0.19,VWS V12.08,2013-07-10 03:56:00,
2013-07-09 23:01:00,72.9,67.1,29.92,West,277,4.0,6.0,82,0.00,,,0.19,VWS V12.08,2013-07-10 04:01:00,
2013-07-09 23:06:00,72.8,67.3,29.92,West,272,2.0,7.0,83,0.00,,,0.19,VWS V12.08,2013-07-10 04:06:00,
2013-07-09 23:11:00,72.6,67.2,29.91,West,277,4.0,7.0,83,0.00,,,0.19,VWS V12.08,2013-07-10 04:11:00,
2013-07-09 23:16:00,72.4,66.9,29.92,West,268,5.0,7.0,83,0.00,,,0.19,VWS V12.08,2013-07-10 04:16:00,
2013-07-09 23:21:00,72.2,67.1,29.92,West,279,6.0,7.0,84,0.00,,,0.19,VWS V12.08,2013-07-10 04:21:00,
2013-07-09 23:26:00,72.2,67.1,29.92,WNW,290,4.0,7.0,84,0.00,,,0.19,VWS V12.08,2013-07-10 04:26:00,
2013-07-09 23:31:00,72.2,67.1,29.92,WNW,294,5.0,6.0,84,0.00,,,0.19,VWS V12.08,2013-07-10 04:31:00,
2013-07-09 23:36:00,72.3,66.8,29.92,WNW,286,4.0,6.0,83,0.00,,,0.19,VWS V12.08,2013-07-10 04:36:00,
2013-07-09 23:41:00,72.3,67.2,29.92,WNW,286,2.0,6.0,84,0.00,,,0.19,VWS V12.08,2013-07-10 04:41:00,
2013-07-09 23:46:00,72.1,67.0,29.92,WNW,298,5.0,6.0,84,0.00,,,0.19,VWS V12.08,2013-07-10 04:46:00,
2013-07-09 23:51:00,71.7,66.6,29.92,WNW,292,4.0,7.0,84,0.00,,,0.19,VWS V12.08,2013-07-10 04:51:00,
2013-07-09 23:56:00,71.4,66.7,29.92,WNW,298,6.0,7.0,85,0.00,,,0.19,VWS V12.08,2013-07-10 04:56:00,